{"data":{"norad_id":30798,"intl_designator":"2007-004E","name":"THEMIS E","alt_names":[],"object_type":"PAYLOAD","status":"ACTIVE","operator":null,"country":"US","launch_date":"2007-02-17","launch_site_code":"AFETR","launch_vehicle":null,"mission":null,"orbit_class":"UNKNOWN","rcs_meters":0.6325,"size_class":null,"mass_kg":null,"dimensions":null,"purposes":[],"wikipedia_slug":null,"has_3d_model":false,"image_url":null,"decayed_at":null,"tle_current":{"epoch":"2026-05-25T03:15:03.173760Z","epoch_age_seconds":59348,"freshness":"FRESH","line1":"1 30798U 07004E   26145.13545340 -.00000095  00000+0  00000+0 0  9994","line2":"2 30798   6.0930  99.4805 8444872 211.3315 345.3894  0.88042011 65714","mean_motion":0.88042011,"eccentricity":0.8444872,"inclination_deg":6.093,"raan_deg":99.4805,"arg_perigee_deg":211.3315,"mean_anomaly_deg":345.3894,"bstar":0,"rev_number":6571,"period_min":1635.582812846,"perigee_km":772.9931070669,"apogee_km":78439.112435542,"semimajor_km":45984.189771304,"source":"CELESTRAK","updated_at":"2026-05-25T13:37:55.094472Z"}}}